TOM288 EGCC-GMAD

Flight info

Callsign TOM288
Flight time 3h 37m
Altitude 35000
Route ASMIM1S ASMIM UP16 NOKIN N862 KARNO DCT BEPHE DCT OSSEP DCT ELNIF DCT ZESPE DCT KLAKI DCT SALCO DCT IBISU DCT BALDA DCT BATAX DCT PINOX DCT TOFEF DCT ALAGU DCT UBESO DCT AMSEL UR722 CSD UR975 EKTAL EKTAL1A
Aircraft B738/M-SDE2E3FGHIRWXY/LB1

Departure

Time 2026-04-20 16:10
Airport Manchester Airport (EGCC)

Arrival

Time 2026-04-20 19:48
Airport Al Massira Airport (GMAD)
Time Latitude Longitude Altitude Speed Heading
2026-04-20 15:22 53.36613 -2.28269 254 ft 0 kts 315°
2026-04-20 15:56 53.36609 -2.28261 254 ft 4 kts 317°
2026-04-20 15:56 53.36588 -2.28233 254 ft 4 kts 330°
2026-04-20 15:56 53.36564 -2.28213 254 ft 4 kts 332°
2026-04-20 15:57 53.36548 -2.28197 254 ft 4 kts 260°
2026-04-20 15:57 53.36545 -2.28198 254 ft 1 kts 224°
2026-04-20 16:02 53.36543 -2.28202 254 ft 1 kts 224°
2026-04-20 16:02 53.36524 -2.28233 254 ft 7 kts 224°
2026-04-20 16:02 53.36476 -2.28311 254 ft 12 kts 224°
2026-04-20 16:02 53.36404 -2.28430 254 ft 16 kts 224°
2026-04-20 16:03 53.36308 -2.28409 254 ft 17 kts 134°
2026-04-20 16:03 53.36226 -2.28272 254 ft 17 kts 135°
2026-04-20 16:03 53.36140 -2.28125 254 ft 18 kts 134°
2026-04-20 16:03 53.36047 -2.27982 254 ft 18 kts 138°
2026-04-20 16:04 53.35950 -2.27857 254 ft 17 kts 159°
2026-04-20 16:04 53.35827 -2.27861 250 ft 20 kts 185°
2026-04-20 16:04 53.35674 -2.27886 242 ft 24 kts 185°
2026-04-20 16:04 53.35552 -2.28049 236 ft 23 kts 227°
2026-04-20 16:05 53.35410 -2.28162 235 ft 23 kts 186°
2026-04-20 16:05 53.35265 -2.28252 233 ft 23 kts 215°
2026-04-20 16:05 53.35160 -2.28450 226 ft 24 kts 231°
2026-04-20 16:05 53.35055 -2.28665 229 ft 23 kts 231°
2026-04-20 16:06 53.34951 -2.28852 226 ft 20 kts 226°
2026-04-20 16:06 53.34868 -2.28997 219 ft 12 kts 226°
2026-04-20 16:06 53.34836 -2.29053 217 ft 6 kts 226°
2026-04-20 16:06 53.34805 -2.29080 219 ft 2 kts 184°
2026-04-20 16:07 53.34803 -2.29079 220 ft 0 kts 178°
2026-04-20 16:09 53.34792 -2.29079 224 ft 4 kts 178°
2026-04-20 16:09 53.34753 -2.29069 217 ft 8 kts 163°
2026-04-20 16:09 53.34683 -2.29014 219 ft 14 kts 141°
2026-04-20 16:09 53.34704 -2.28882 220 ft 23 kts 49°
2026-04-20 16:10 53.34941 -2.28392 232 ft 86 kts 51°
2026-04-20 16:10 53.35440 -2.27361 245 ft 140 kts 51°
2026-04-20 16:10 53.36113 -2.25941 551 ft 157 kts 52°
2026-04-20 16:10 53.36786 -2.24607 1350 ft 148 kts 51°
2026-04-20 16:11 53.37507 -2.23204 1656 ft 175 kts 51°
2026-04-20 16:11 53.38327 -2.21503 1939 ft 201 kts 49°
2026-04-20 16:11 53.39623 -2.20416 2192 ft 223 kts
2026-04-20 16:11 53.41097 -2.21205 2782 ft 230 kts 320°
2026-04-20 16:12 53.42041 -2.23373 3456 ft 234 kts 295°
2026-04-20 16:12 53.42651 -2.25760 3819 ft 253 kts 292°
2026-04-20 16:12 53.43313 -2.28501 4245 ft 266 kts 292°
2026-04-20 16:12 53.43777 -2.30421 4712 ft 271 kts 292°
2026-04-20 16:13 53.44286 -2.33474 5398 ft 273 kts 269°
2026-04-20 16:13 53.43774 -2.36459 6237 ft 269 kts 234°
2026-04-20 16:13 53.42434 -2.38661 6863 ft 273 kts 218°
2026-04-20 16:13 53.40959 -2.40714 7473 ft 280 kts 219°
2026-04-20 16:14 53.39462 -2.42837 8129 ft 283 kts 220°
2026-04-20 16:14 53.37955 -2.44985 8821 ft 286 kts 220°
2026-04-20 16:14 53.36444 -2.47146 9581 ft 287 kts 220°
2026-04-20 16:14 53.34907 -2.49352 10210 ft 293 kts 220°
2026-04-20 16:15 53.33353 -2.51587 10740 ft 301 kts 220°
2026-04-20 16:15 53.31708 -2.53953 10917 ft 322 kts 220°
2026-04-20 16:15 53.29959 -2.56469 11112 ft 340 kts 220°
2026-04-20 16:15 53.28128 -2.59101 11429 ft 353 kts 220°
2026-04-20 16:16 53.26253 -2.61795 12026 ft 357 kts 221°
2026-04-20 16:16 53.24371 -2.64498 12750 ft 358 kts 221°
2026-04-20 16:16 53.22474 -2.67219 13426 ft 361 kts 221°
2026-04-20 16:16 53.20560 -2.69961 14062 ft 365 kts 222°
2026-04-20 16:17 53.18627 -2.72727 14690 ft 367 kts 222°
2026-04-20 16:17 53.16683 -2.75506 15361 ft 369 kts 222°
2026-04-20 16:17 53.14729 -2.78295 16005 ft 372 kts 222°
2026-04-20 16:17 53.12755 -2.81110 16638 ft 375 kts 222°
2026-04-20 16:18 53.10760 -2.83949 17250 ft 378 kts 223°
2026-04-20 16:18 53.08611 -2.86505 17838 ft 386 kts 207°
2026-04-20 16:18 53.06045 -2.87691 18421 ft 394 kts 186°
2026-04-20 16:18 53.03304 -2.87341 18975 ft 399 kts 171°
2026-04-20 16:19 53.00556 -2.86523 19479 ft 403 kts 171°
2026-04-20 16:19 52.97788 -2.85695 19955 ft 407 kts 171°
2026-04-20 16:19 52.94980 -2.84879 20351 ft 413 kts 173°
2026-04-20 16:19 52.92123 -2.84078 20784 ft 418 kts 173°
2026-04-20 16:20 52.89250 -2.83292 21318 ft 420 kts 174°
2026-04-20 16:20 52.86353 -2.82509 21813 ft 423 kts 174°
2026-04-20 16:20 52.83429 -2.81722 22270 ft 427 kts 174°
2026-04-20 16:20 52.80484 -2.80932 22714 ft 431 kts 174°
2026-04-20 16:21 52.77512 -2.80133 23164 ft 435 kts 174°
2026-04-20 16:21 52.74515 -2.79329 23609 ft 438 kts 175°
2026-04-20 16:21 52.71495 -2.78519 23940 ft 443 kts 176°
2026-04-20 16:21 52.68422 -2.77699 24159 ft 450 kts 176°
2026-04-20 16:22 52.65326 -2.76872 24558 ft 451 kts 176°
2026-04-20 16:22 52.62226 -2.76063 24981 ft 451 kts 179°
2026-04-20 16:22 52.59112 -2.75781 25300 ft 446 kts 189°
2026-04-20 16:22 52.56022 -2.76137 25650 ft 446 kts 191°
2026-04-20 16:23 52.52910 -2.76509 25955 ft 450 kts 191°
2026-04-20 16:23 52.49774 -2.76821 26300 ft 453 kts 190°
2026-04-20 16:23 52.46620 -2.77101 26615 ft 455 kts 191°
2026-04-20 16:23 52.43452 -2.77370 26923 ft 458 kts 191°
2026-04-20 16:24 52.40253 -2.77639 27252 ft 460 kts 191°
2026-04-20 16:24 52.37049 -2.77909 27563 ft 462 kts 191°
2026-04-20 16:24 52.33829 -2.78182 27874 ft 464 kts 191°
2026-04-20 16:24 52.30600 -2.78458 28189 ft 466 kts 191°
2026-04-20 16:25 52.27394 -2.78733 28475 ft 468 kts 191°
2026-04-20 16:25 52.24088 -2.79017 28733 ft 470 kts 192°
2026-04-20 16:25 52.20860 -2.79293 29042 ft 472 kts 192°
2026-04-20 16:25 52.17575 -2.79574 29321 ft 474 kts 192°
2026-04-20 16:26 52.14271 -2.79856 29588 ft 476 kts 192°
2026-04-20 16:26 52.10965 -2.80139 29935 ft 475 kts 192°
2026-04-20 16:26 52.07666 -2.80415 30356 ft 474 kts 192°
2026-04-20 16:26 52.04381 -2.80690 30684 ft 472 kts 192°
2026-04-20 16:27 52.01099 -2.80970 30932 ft 473 kts 191°
2026-04-20 16:27 51.97814 -2.81253 31235 ft 473 kts 191°
2026-04-20 16:27 51.94529 -2.81533 31572 ft 472 kts 191°
2026-04-20 16:27 51.91255 -2.81811 31903 ft 471 kts 191°
2026-04-20 16:28 51.87981 -2.82090 32182 ft 471 kts 191°
2026-04-20 16:28 51.84752 -2.82678 32420 ft 463 kts 199°
2026-04-20 16:28 51.81686 -2.84039 32703 ft 454 kts 206°
2026-04-20 16:28 51.78687 -2.85629 33004 ft 453 kts 206°
2026-04-20 16:29 51.75693 -2.87227 33206 ft 454 kts 206°
2026-04-20 16:29 51.72691 -2.88819 33425 ft 455 kts 206°
2026-04-20 16:29 51.69682 -2.90394 33656 ft 455 kts 205°
2026-04-20 16:29 51.66663 -2.91956 33877 ft 456 kts 205°
2026-04-20 16:30 51.63638 -2.93509 34069 ft 457 kts 205°
2026-04-20 16:30 51.60603 -2.95058 34295 ft 458 kts 205°
2026-04-20 16:30 51.57563 -2.96604 34510 ft 457 kts 205°
2026-04-20 16:30 51.54529 -2.98143 34705 ft 457 kts 205°
2026-04-20 16:31 51.51488 -2.99685 34840 ft 458 kts 205°
2026-04-20 16:31 51.48443 -3.01227 34976 ft 459 kts 204°
2026-04-20 16:31 51.45409 -3.02762 35196 ft 458 kts 204°
2026-04-20 16:31 51.42371 -3.04297 35425 ft 457 kts 204°
2026-04-20 16:32 51.39381 -3.05805 35619 ft 457 kts 204°
2026-04-20 16:32 51.36348 -3.07334 35799 ft 457 kts 204°
2026-04-20 16:32 51.33319 -3.08860 35985 ft 457 kts 204°
2026-04-20 16:32 51.30292 -3.10381 36185 ft 456 kts 204°
2026-04-20 16:33 51.27270 -3.11898 36405 ft 454 kts 204°
2026-04-20 16:33 51.24264 -3.13403 36675 ft 452 kts 204°
2026-04-20 16:33 51.21268 -3.14903 36854 ft 451 kts 203°
2026-04-20 16:33 51.18266 -3.16404 37002 ft 452 kts 203°
2026-04-20 16:34 51.15266 -3.17903 37163 ft 452 kts 203°
2026-04-20 16:34 51.12266 -3.19400 37222 ft 453 kts 203°
2026-04-20 16:34 51.06249 -3.22395 37233 ft 452 kts 203°
2026-04-20 16:35 51.00253 -3.25368 37234 ft 450 kts 203°
2026-04-20 16:35 50.94290 -3.28318 37242 ft 448 kts 203°
2026-04-20 16:36 50.88343 -3.31255 37230 ft 447 kts 203°
2026-04-20 16:36 50.82412 -3.34175 37221 ft 446 kts 203°
2026-04-20 16:37 50.76492 -3.37082 37236 ft 445 kts 203°
2026-04-20 16:37 50.70570 -3.39983 37244 ft 446 kts 202°
2026-04-20 16:38 50.64635 -3.42883 37240 ft 447 kts 202°
2026-04-20 16:38 50.58681 -3.45784 37215 ft 448 kts 202°
2026-04-20 16:39 50.52633 -3.48319 37237 ft 451 kts 198°
2026-04-20 16:39 50.46537 -3.50452 37235 ft 453 kts 197°
2026-04-20 16:40 50.40376 -3.52585 37232 ft 454 kts 198°
2026-04-20 16:40 50.35214 -3.54409 37216 ft 454 kts 198°
2026-04-20 16:41 50.28796 -3.56702 37221 ft 455 kts 198°
2026-04-20 16:41 50.22627 -3.58910 37226 ft 455 kts 198°
2026-04-20 16:42 50.16453 -3.61115 37222 ft 455 kts 198°
2026-04-20 16:42 50.10285 -3.63309 37216 ft 454 kts 197°
2026-04-20 16:43 50.04134 -3.65491 37198 ft 453 kts 197°
2026-04-20 16:43 49.98004 -3.67660 37209 ft 451 kts 197°
2026-04-20 16:44 49.91891 -3.69818 37212 ft 450 kts 197°
2026-04-20 16:44 49.85799 -3.71962 37204 ft 448 kts 198°
2026-04-20 16:45 49.79725 -3.74095 37208 ft 447 kts 198°
2026-04-20 16:45 49.73714 -3.76201 37209 ft 446 kts 198°
2026-04-20 16:46 49.67668 -3.78314 37178 ft 445 kts 198°
2026-04-20 16:46 49.61631 -3.80417 37193 ft 445 kts 198°
2026-04-20 16:47 49.56577 -3.82175 37198 ft 445 kts 198°
2026-04-20 16:47 49.49546 -3.84613 37194 ft 446 kts 198°
2026-04-20 16:48 49.43488 -3.86709 37185 ft 447 kts 198°
2026-04-20 16:48 49.37421 -3.88802 37183 ft 447 kts 197°
2026-04-20 16:49 49.31342 -3.90894 37181 ft 448 kts 197°
2026-04-20 16:49 49.25254 -3.92983 37176 ft 449 kts 197°
2026-04-20 16:50 49.19154 -3.95071 37160 ft 449 kts 197°
2026-04-20 16:50 49.13059 -3.97152 37160 ft 449 kts 197°
2026-04-20 16:51 49.06964 -3.99228 37154 ft 448 kts 197°
2026-04-20 16:51 49.00887 -4.01293 37140 ft 447 kts 197°
2026-04-20 16:52 48.94812 -4.03351 37144 ft 446 kts 197°
2026-04-20 16:52 48.88765 -4.05395 37138 ft 444 kts 197°
2026-04-20 16:53 48.84773 -4.06742 37138 ft 443 kts 197°
2026-04-20 16:53 48.77742 -4.09109 37121 ft 442 kts 197°
2026-04-20 16:54 48.70781 -4.11445 37110 ft 441 kts 197°
2026-04-20 16:54 48.64799 -4.13449 37106 ft 440 kts 197°
2026-04-20 16:55 48.58824 -4.15444 37105 ft 440 kts 197°
2026-04-20 16:55 48.52855 -4.17433 37099 ft 439 kts 197°
2026-04-20 16:56 48.46882 -4.19419 37098 ft 439 kts 197°
2026-04-20 16:56 48.40910 -4.21399 37104 ft 440 kts 197°
2026-04-20 16:57 48.34929 -4.23377 37088 ft 440 kts 197°
2026-04-20 16:57 48.28946 -4.25351 37097 ft 441 kts 197°
2026-04-20 16:58 48.23958 -4.26993 37101 ft 441 kts 197°
2026-04-20 16:58 48.16979 -4.29286 37103 ft 442 kts 197°
2026-04-20 16:59 48.10967 -4.31255 37074 ft 442 kts 197°
2026-04-20 16:59 48.04958 -4.33218 37070 ft 442 kts 197°
2026-04-20 17:00 47.95957 -4.36151 37074 ft 441 kts 197°
2026-04-20 17:01 47.89962 -4.38099 37064 ft 440 kts 197°
2026-04-20 17:01 47.84988 -4.39711 37061 ft 440 kts 197°
2026-04-20 17:02 47.78014 -4.41966 37050 ft 438 kts 197°
2026-04-20 17:02 47.72064 -4.43885 37051 ft 437 kts 197°
2026-04-20 17:03 47.67131 -4.45473 37047 ft 436 kts 197°
2026-04-20 17:03 47.61204 -4.47377 37049 ft 435 kts 197°
2026-04-20 17:04 47.55290 -4.49273 37054 ft 434 kts 197°
2026-04-20 17:04 47.49383 -4.51162 37034 ft 434 kts 197°
2026-04-20 17:05 47.43486 -4.53043 37052 ft 433 kts 197°
2026-04-20 17:05 47.37596 -4.54918 37052 ft 433 kts 197°
2026-04-20 17:06 47.31707 -4.56789 37047 ft 433 kts 197°
2026-04-20 17:06 47.25819 -4.58654 37047 ft 433 kts 197°
2026-04-20 17:07 47.19933 -4.60516 37050 ft 433 kts 197°
2026-04-20 17:07 47.14040 -4.62375 37049 ft 433 kts 197°
2026-04-20 17:08 47.08189 -4.64226 37031 ft 433 kts 198°
2026-04-20 17:08 47.02362 -4.66396 37045 ft 431 kts 200°
2026-04-20 17:09 46.96567 -4.68694 37047 ft 431 kts 200°
2026-04-20 17:09 46.90766 -4.70966 37044 ft 432 kts 200°
2026-04-20 17:10 46.84958 -4.73202 37031 ft 431 kts 199°
2026-04-20 17:10 46.79153 -4.75420 37037 ft 431 kts 199°
2026-04-20 17:11 46.73346 -4.77630 37037 ft 431 kts 199°
2026-04-20 17:11 46.67547 -4.79833 37033 ft 431 kts 199°
2026-04-20 17:12 46.61749 -4.82031 37032 ft 430 kts 199°
2026-04-20 17:12 46.55957 -4.84223 37033 ft 430 kts 199°
2026-04-20 17:13 46.50207 -4.86394 37027 ft 430 kts 199°
2026-04-20 17:13 46.44384 -4.88587 37012 ft 429 kts 199°
2026-04-20 17:14 46.38645 -4.90744 37023 ft 429 kts 199°
2026-04-20 17:14 46.32872 -4.92909 37020 ft 428 kts 199°
2026-04-20 17:15 46.27106 -4.95067 37019 ft 428 kts 199°
2026-04-20 17:15 46.21342 -4.97220 37008 ft 428 kts 199°
2026-04-20 17:16 46.15585 -4.99365 37013 ft 427 kts 199°
2026-04-20 17:16 46.09827 -5.01506 37013 ft 427 kts 199°
2026-04-20 17:17 46.04063 -5.03645 36997 ft 428 kts 199°
2026-04-20 17:17 45.98300 -5.05778 37011 ft 428 kts 199°
2026-04-20 17:18 45.92530 -5.07910 37007 ft 428 kts 199°
2026-04-20 17:18 45.86757 -5.10038 37006 ft 429 kts 199°
2026-04-20 17:19 45.80979 -5.12164 37002 ft 428 kts 198°
2026-04-20 17:19 45.75203 -5.14284 36993 ft 429 kts 198°
2026-04-20 17:20 45.69422 -5.16401 37004 ft 429 kts 198°
2026-04-20 17:20 45.63635 -5.18516 36988 ft 429 kts 198°
2026-04-20 17:21 45.57856 -5.20624 36996 ft 429 kts 198°
2026-04-20 17:21 45.52116 -5.22712 36991 ft 429 kts 198°
2026-04-20 17:22 45.46339 -5.24810 36990 ft 428 kts 198°
2026-04-20 17:22 45.40566 -5.26903 36988 ft 428 kts 198°
2026-04-20 17:23 45.34795 -5.28989 36990 ft 428 kts 198°
2026-04-20 17:23 45.29032 -5.31069 36988 ft 427 kts 198°
2026-04-20 17:24 45.23270 -5.33144 36980 ft 427 kts 198°
2026-04-20 17:24 45.17519 -5.35211 36980 ft 426 kts 198°
2026-04-20 17:25 45.11770 -5.37272 36981 ft 426 kts 198°
2026-04-20 17:25 45.06032 -5.39326 36974 ft 425 kts 198°
2026-04-20 17:26 45.00299 -5.41374 36983 ft 424 kts 198°
2026-04-20 17:26 44.94574 -5.43414 36973 ft 424 kts 198°
2026-04-20 17:27 44.88859 -5.45447 36975 ft 423 kts 198°
2026-04-20 17:27 44.83189 -5.47460 36970 ft 423 kts 198°
2026-04-20 17:28 44.77455 -5.49491 36976 ft 422 kts 198°
2026-04-20 17:28 44.71802 -5.51490 36979 ft 422 kts 198°
2026-04-20 17:29 44.66113 -5.53498 36969 ft 421 kts 198°
2026-04-20 17:29 44.60429 -5.55502 36972 ft 421 kts 198°
2026-04-20 17:30 44.54777 -5.57639 36975 ft 421 kts 199°
2026-04-20 17:30 44.49136 -5.59839 36972 ft 421 kts 199°
2026-04-20 17:31 44.43488 -5.62030 36968 ft 421 kts 199°
2026-04-20 17:31 44.37841 -5.64202 36965 ft 421 kts 199°
2026-04-20 17:32 44.32187 -5.66367 36964 ft 421 kts 199°
2026-04-20 17:32 44.26529 -5.68528 36954 ft 422 kts 199°
2026-04-20 17:33 44.20870 -5.70685 36967 ft 422 kts 199°
2026-04-20 17:33 44.15208 -5.72838 36967 ft 422 kts 199°
2026-04-20 17:34 44.09545 -5.74988 36960 ft 421 kts 199°
2026-04-20 17:34 44.03929 -5.77116 36961 ft 421 kts 199°
2026-04-20 17:35 43.98279 -5.79252 36960 ft 421 kts 199°
2026-04-20 17:35 43.92598 -5.81397 36957 ft 420 kts 199°
2026-04-20 17:36 43.86960 -5.83520 36947 ft 420 kts 199°
2026-04-20 17:36 43.81369 -5.85622 36957 ft 419 kts 199°
2026-04-20 17:37 43.75747 -5.87731 36957 ft 418 kts 199°
2026-04-20 17:37 43.70129 -5.89835 36960 ft 418 kts 199°
2026-04-20 17:38 43.64511 -5.91935 36954 ft 418 kts 198°
2026-04-20 17:38 43.58898 -5.94029 36969 ft 418 kts 198°
2026-04-20 17:39 43.53275 -5.96122 36969 ft 419 kts 198°
2026-04-20 17:39 43.47648 -5.98214 36962 ft 419 kts 198°
2026-04-20 17:40 43.42013 -6.00303 36970 ft 420 kts 198°
2026-04-20 17:40 43.36367 -6.02393 36960 ft 421 kts 198°
2026-04-20 17:41 43.30707 -6.04484 36960 ft 421 kts 198°
2026-04-20 17:41 43.25038 -6.06574 36935 ft 422 kts 198°
2026-04-20 17:42 43.19370 -6.08660 36940 ft 422 kts 198°
2026-04-20 17:42 43.13692 -6.10746 36950 ft 423 kts 198°
2026-04-20 17:43 43.08007 -6.12830 36937 ft 422 kts 198°
2026-04-20 17:43 43.02317 -6.14911 36925 ft 423 kts 198°
2026-04-20 17:44 42.96667 -6.16973 36930 ft 423 kts 198°
2026-04-20 17:44 42.90982 -6.19046 36933 ft 423 kts 198°
2026-04-20 17:45 42.85298 -6.21114 36905 ft 422 kts 198°
2026-04-20 17:45 42.79625 -6.23173 36906 ft 421 kts 198°
2026-04-20 17:46 42.73963 -6.25226 36897 ft 421 kts 198°
2026-04-20 17:46 42.68310 -6.27270 36896 ft 420 kts 198°
2026-04-20 17:47 42.62663 -6.29309 36882 ft 419 kts 198°
2026-04-20 17:47 42.57075 -6.31323 36892 ft 418 kts 198°
2026-04-20 17:48 42.51451 -6.33347 36894 ft 418 kts 198°
2026-04-20 17:48 42.45823 -6.35368 36882 ft 419 kts 198°
2026-04-20 17:49 42.40190 -6.37387 36887 ft 419 kts 198°
2026-04-20 17:49 42.34558 -6.39400 36879 ft 419 kts 198°
2026-04-20 17:50 42.28916 -6.41416 36896 ft 420 kts 198°
2026-04-20 17:50 42.23252 -6.43435 36883 ft 422 kts 198°
2026-04-20 17:51 42.17577 -6.45454 36885 ft 422 kts 198°
2026-04-20 17:51 42.11887 -6.47473 36902 ft 423 kts 198°
2026-04-20 17:52 42.06191 -6.49492 36891 ft 423 kts 198°
2026-04-20 17:52 42.00492 -6.51508 36876 ft 423 kts 198°
2026-04-20 17:53 41.94803 -6.53517 36886 ft 422 kts 198°
2026-04-20 17:53 41.89119 -6.55520 36888 ft 422 kts 198°
2026-04-20 17:54 41.83486 -6.57502 36882 ft 421 kts 198°
2026-04-20 17:54 41.77826 -6.59490 36882 ft 420 kts 198°
2026-04-20 17:55 41.72180 -6.61470 36872 ft 419 kts 198°
2026-04-20 17:55 41.66551 -6.63446 36879 ft 418 kts 198°
2026-04-20 17:56 41.61872 -6.65094 36864 ft 418 kts 198°
2026-04-20 17:56 41.56269 -6.67065 36877 ft 416 kts 198°
2026-04-20 17:57 41.50670 -6.69035 36872 ft 416 kts 198°
2026-04-20 17:57 41.45066 -6.71001 36871 ft 417 kts 198°
2026-04-20 17:58 41.39448 -6.72967 36867 ft 418 kts 198°
2026-04-20 17:58 41.33815 -6.74936 36866 ft 419 kts 198°
2026-04-20 17:59 41.28169 -6.76905 36871 ft 420 kts 198°
2026-04-20 17:59 41.22507 -6.78876 36870 ft 421 kts 197°
2026-04-20 18:00 41.16833 -6.80848 36859 ft 422 kts 197°
2026-04-20 18:00 41.11155 -6.82817 36868 ft 422 kts 197°
2026-04-20 18:01 41.05480 -6.84782 36880 ft 421 kts 197°
2026-04-20 18:01 40.99852 -6.86727 36862 ft 420 kts 197°
2026-04-20 18:02 40.94211 -6.88673 36855 ft 419 kts 197°
2026-04-20 18:02 40.88590 -6.90610 36860 ft 416 kts 197°
2026-04-20 18:03 40.82991 -6.92535 36863 ft 415 kts 197°
2026-04-20 18:03 40.77412 -6.94450 36872 ft 414 kts 197°
2026-04-20 18:04 40.71845 -6.96358 36874 ft 413 kts 197°
2026-04-20 18:04 40.66288 -6.98259 36876 ft 412 kts 197°
2026-04-20 18:05 40.57946 -7.01107 36882 ft 413 kts 197°
2026-04-20 18:05 40.52371 -7.03006 36876 ft 415 kts 197°
2026-04-20 18:06 40.46780 -7.04908 36880 ft 416 kts 197°
2026-04-20 18:06 40.41210 -7.06799 36880 ft 417 kts 197°
2026-04-20 18:07 40.35587 -7.08705 36881 ft 418 kts 197°
2026-04-20 18:07 40.29952 -7.10611 36879 ft 419 kts 197°
2026-04-20 18:08 40.24306 -7.12527 36852 ft 420 kts 197°
2026-04-20 18:08 40.18650 -7.14453 36863 ft 420 kts 197°
2026-04-20 18:09 40.13000 -7.16375 36866 ft 420 kts 197°
2026-04-20 18:09 40.07351 -7.18291 36860 ft 419 kts 197°
2026-04-20 18:10 40.01743 -7.20191 36852 ft 419 kts 197°
2026-04-20 18:10 39.96108 -7.22095 36874 ft 418 kts 197°
2026-04-20 18:11 39.90480 -7.23995 36858 ft 418 kts 197°
2026-04-20 18:11 39.84855 -7.25890 36853 ft 417 kts 197°
2026-04-20 18:12 39.79243 -7.27778 36847 ft 416 kts 197°
2026-04-20 18:12 39.73633 -7.29662 36852 ft 415 kts 197°
2026-04-20 18:13 39.68076 -7.31526 36851 ft 415 kts 196°
2026-04-20 18:13 39.62487 -7.33396 36851 ft 415 kts 196°
2026-04-20 18:14 39.56898 -7.35265 36842 ft 414 kts 196°
2026-04-20 18:14 39.51291 -7.36997 36849 ft 416 kts 191°
2026-04-20 18:15 39.45555 -7.38020 36855 ft 416 kts 189°
2026-04-20 18:15 39.39802 -7.38948 36852 ft 417 kts 189°
2026-04-20 18:16 39.34043 -7.39914 36845 ft 417 kts 189°
2026-04-20 18:16 39.28286 -7.40907 36854 ft 418 kts 190°
2026-04-20 18:17 39.22518 -7.41913 36853 ft 418 kts 190°
2026-04-20 18:17 39.16747 -7.42919 36855 ft 419 kts 190°
2026-04-20 18:18 39.10967 -7.43924 36849 ft 419 kts 190°
2026-04-20 18:18 39.05224 -7.44921 36849 ft 419 kts 190°
2026-04-20 18:19 38.99444 -7.45922 36856 ft 419 kts 190°
2026-04-20 18:19 38.93664 -7.46922 36851 ft 419 kts 190°
2026-04-20 18:20 38.87889 -7.47919 36842 ft 419 kts 190°
2026-04-20 18:20 38.82115 -7.48915 36852 ft 418 kts 190°
2026-04-20 18:21 38.76344 -7.49908 36861 ft 418 kts 190°
2026-04-20 18:21 38.70575 -7.50899 36852 ft 418 kts 190°
2026-04-20 18:22 38.64806 -7.51889 36849 ft 418 kts 190°
2026-04-20 18:22 38.59043 -7.52876 36859 ft 418 kts 190°
2026-04-20 18:23 38.53277 -7.53862 36853 ft 418 kts 190°
2026-04-20 18:23 38.47512 -7.54847 36856 ft 418 kts 189°
2026-04-20 18:24 38.41749 -7.55829 36854 ft 418 kts 189°
2026-04-20 18:24 38.35985 -7.56810 36854 ft 418 kts 190°
2026-04-20 18:25 38.30222 -7.57789 36860 ft 418 kts 190°
2026-04-20 18:25 38.24462 -7.58767 36857 ft 418 kts 190°
2026-04-20 18:26 38.18696 -7.59743 36875 ft 418 kts 190°
2026-04-20 18:26 38.12933 -7.60718 36882 ft 418 kts 190°
2026-04-20 18:27 38.07166 -7.61683 36868 ft 418 kts 189°
2026-04-20 18:27 38.01388 -7.62563 36867 ft 418 kts 189°
2026-04-20 18:28 37.95612 -7.63422 36853 ft 418 kts 189°
2026-04-20 18:28 37.89881 -7.64280 36856 ft 417 kts 189°
2026-04-20 18:29 37.84087 -7.65153 36858 ft 417 kts 189°
2026-04-20 18:29 37.78369 -7.66014 36856 ft 416 kts 189°
2026-04-20 18:30 37.72626 -7.66879 36864 ft 416 kts 189°
2026-04-20 18:30 37.66884 -7.67742 36857 ft 415 kts 189°
2026-04-20 18:31 37.61150 -7.68602 36867 ft 415 kts 189°
2026-04-20 18:31 37.55416 -7.69461 36867 ft 415 kts 189°
2026-04-20 18:32 37.49682 -7.70319 36868 ft 415 kts 189°
2026-04-20 18:32 37.43938 -7.71177 36858 ft 415 kts 189°
2026-04-20 18:33 37.38193 -7.72033 36861 ft 416 kts 189°
2026-04-20 18:33 37.32445 -7.72889 36873 ft 417 kts 189°
2026-04-20 18:34 37.26679 -7.73746 36867 ft 417 kts 189°
2026-04-20 18:34 37.20915 -7.74601 36861 ft 418 kts 189°
2026-04-20 18:35 37.15140 -7.75457 36871 ft 418 kts 189°
2026-04-20 18:35 37.09401 -7.76306 36881 ft 418 kts 189°
2026-04-20 18:36 37.03624 -7.77160 36879 ft 418 kts 189°
2026-04-20 18:36 36.97840 -7.78013 36869 ft 418 kts 189°
2026-04-20 18:37 36.92062 -7.78864 36876 ft 418 kts 189°
2026-04-20 18:37 36.86290 -7.79713 36876 ft 418 kts 189°
2026-04-20 18:38 36.80521 -7.80561 36874 ft 418 kts 189°
2026-04-20 18:38 36.74751 -7.81406 36865 ft 417 kts 189°
2026-04-20 18:39 36.68957 -7.82024 36858 ft 418 kts 187°
2026-04-20 18:39 36.63149 -7.82484 36858 ft 418 kts 187°
2026-04-20 18:40 36.57350 -7.82962 36857 ft 418 kts 187°
2026-04-20 18:40 36.51551 -7.83466 36858 ft 418 kts 187°
2026-04-20 18:41 36.45754 -7.83980 36845 ft 417 kts 187°
2026-04-20 18:41 36.39964 -7.84493 36853 ft 417 kts 187°
2026-04-20 18:42 36.34168 -7.85006 36850 ft 418 kts 187°
2026-04-20 18:42 36.28368 -7.85518 36847 ft 418 kts 187°
2026-04-20 18:43 36.22569 -7.86029 36837 ft 418 kts 187°
2026-04-20 18:43 36.16768 -7.86539 36846 ft 418 kts 187°
2026-04-20 18:44 36.10964 -7.87049 36844 ft 418 kts 187°
2026-04-20 18:44 36.05160 -7.87559 36845 ft 418 kts 187°
2026-04-20 18:45 35.99390 -7.88064 36847 ft 419 kts 187°
2026-04-20 18:45 35.93550 -7.88164 36852 ft 422 kts 180°
2026-04-20 18:46 35.87686 -7.87576 36843 ft 423 kts 179°
2026-04-20 18:46 35.81824 -7.86972 36845 ft 423 kts 180°
2026-04-20 18:47 35.75959 -7.86416 36842 ft 423 kts 180°
2026-04-20 18:47 35.70097 -7.85884 36844 ft 422 kts 180°
2026-04-20 18:48 35.64235 -7.85356 36843 ft 422 kts 180°
2026-04-20 18:48 35.59365 -7.84917 36842 ft 422 kts 180°
2026-04-20 18:49 35.53508 -7.84389 36843 ft 422 kts 180°
2026-04-20 18:49 35.47649 -7.83862 36831 ft 422 kts 180°
2026-04-20 18:50 35.41800 -7.83336 36841 ft 421 kts 180°
2026-04-20 18:50 35.35955 -7.82834 36833 ft 421 kts 180°
2026-04-20 18:51 35.30102 -7.82349 36842 ft 421 kts 180°
2026-04-20 18:51 35.24254 -7.81863 36819 ft 421 kts 181°
2026-04-20 18:52 35.18405 -7.81374 36830 ft 421 kts 181°
2026-04-20 18:52 35.12556 -7.80886 36837 ft 421 kts 181°
2026-04-20 18:53 35.06706 -7.80398 36834 ft 421 kts 181°
2026-04-20 18:53 35.00889 -7.79914 36833 ft 422 kts 181°
2026-04-20 18:54 34.95037 -7.79427 36830 ft 421 kts 181°
2026-04-20 18:54 34.89184 -7.78941 36827 ft 422 kts 181°
2026-04-20 18:55 34.83335 -7.78456 36825 ft 422 kts 181°
2026-04-20 18:55 34.77481 -7.77972 36824 ft 421 kts 181°
2026-04-20 18:56 34.71631 -7.77501 36814 ft 421 kts 182°
2026-04-20 18:56 34.65786 -7.77091 36824 ft 420 kts 182°
2026-04-20 18:57 34.59941 -7.76689 36825 ft 420 kts 182°
2026-04-20 18:57 34.54100 -7.76282 36822 ft 420 kts 182°
2026-04-20 18:58 34.48259 -7.75872 36805 ft 420 kts 182°
2026-04-20 18:58 34.42426 -7.75461 36817 ft 420 kts 182°
2026-04-20 18:59 34.36588 -7.75052 36816 ft 420 kts 182°
2026-04-20 18:59 34.30750 -7.74643 36817 ft 420 kts 182°
2026-04-20 19:00 34.24919 -7.74234 36818 ft 420 kts 182°
2026-04-20 19:00 34.19127 -7.73830 36811 ft 419 kts 182°
2026-04-20 19:01 34.13296 -7.73339 36815 ft 420 kts 181°
2026-04-20 19:01 34.07467 -7.72783 36814 ft 420 kts 181°
2026-04-20 19:02 34.01632 -7.72232 36814 ft 420 kts 181°
2026-04-20 19:02 33.95800 -7.71692 36795 ft 420 kts 181°
2026-04-20 19:03 33.89967 -7.71157 36811 ft 420 kts 181°
2026-04-20 19:03 33.84134 -7.70623 36815 ft 421 kts 181°
2026-04-20 19:04 33.78292 -7.70089 36817 ft 421 kts 181°
2026-04-20 19:04 33.72449 -7.69555 36807 ft 421 kts 181°
2026-04-20 19:05 33.66603 -7.69021 36802 ft 421 kts 181°
2026-04-20 19:05 33.60753 -7.68488 36803 ft 422 kts 181°
2026-04-20 19:06 33.54909 -7.68089 36791 ft 417 kts 189°
2026-04-20 19:06 33.49360 -7.69560 36800 ft 405 kts 205°
2026-04-20 19:07 33.44249 -7.72321 36790 ft 403 kts 209°
2026-04-20 19:07 33.39168 -7.75164 36824 ft 403 kts 209°
2026-04-20 19:08 33.31549 -7.79386 36829 ft 405 kts 208°
2026-04-20 19:09 33.26429 -7.82202 36831 ft 405 kts 208°
2026-04-20 19:09 33.21297 -7.85016 36833 ft 406 kts 208°
2026-04-20 19:10 33.16157 -7.87830 36833 ft 407 kts 208°
2026-04-20 19:10 33.11010 -7.90646 36832 ft 407 kts 208°
2026-04-20 19:11 33.05858 -7.93460 36824 ft 407 kts 208°
2026-04-20 19:11 33.00708 -7.96269 36830 ft 407 kts 208°
2026-04-20 19:12 32.95561 -7.99074 36826 ft 407 kts 208°
2026-04-20 19:12 32.90415 -8.01874 36829 ft 406 kts 208°
2026-04-20 19:13 32.85274 -8.04667 36823 ft 406 kts 208°
2026-04-20 19:13 32.80142 -8.07453 36825 ft 405 kts 208°
2026-04-20 19:14 32.75018 -8.10231 36824 ft 405 kts 208°
2026-04-20 19:14 32.69896 -8.13004 36829 ft 404 kts 208°
2026-04-20 19:15 32.64773 -8.15774 36827 ft 404 kts 208°
2026-04-20 19:15 32.59654 -8.18539 36821 ft 404 kts 208°
2026-04-20 19:16 32.54567 -8.21283 36830 ft 404 kts 208°
2026-04-20 19:16 32.49443 -8.24043 36834 ft 405 kts 208°
2026-04-20 19:17 32.44307 -8.26807 36838 ft 406 kts 208°
2026-04-20 19:17 32.39160 -8.29572 36839 ft 407 kts 208°
2026-04-20 19:18 32.34004 -8.32340 36824 ft 407 kts 208°
2026-04-20 19:18 32.28843 -8.35106 36870 ft 407 kts 208°
2026-04-20 19:19 32.23677 -8.37872 36841 ft 408 kts 208°
2026-04-20 19:19 32.18487 -8.40648 36396 ft 413 kts 208°
2026-04-20 19:19 32.15895 -8.42032 36051 ft 406 kts 208°
2026-04-20 19:20 32.13329 -8.43401 35638 ft 402 kts 208°
2026-04-20 19:20 32.10795 -8.44752 35232 ft 398 kts 208°
2026-04-20 19:20 32.08289 -8.46100 34829 ft 394 kts 209°
2026-04-20 19:20 32.05827 -8.47483 34415 ft 390 kts 210°
2026-04-20 19:21 32.03399 -8.48875 34026 ft 387 kts 210°
2026-04-20 19:21 32.00991 -8.50263 33599 ft 384 kts 210°
2026-04-20 19:21 31.98598 -8.51640 33168 ft 381 kts 210°
2026-04-20 19:21 31.96229 -8.52999 32763 ft 378 kts 209°
2026-04-20 19:22 31.93906 -8.54327 32369 ft 374 kts 209°
2026-04-20 19:22 31.91543 -8.55675 31983 ft 371 kts 209°
2026-04-20 19:22 31.89260 -8.56975 31608 ft 367 kts 209°
2026-04-20 19:22 31.86970 -8.58278 31241 ft 365 kts 208°
2026-04-20 19:23 31.84668 -8.59588 30884 ft 370 kts 208°
2026-04-20 19:23 31.82336 -8.60914 30501 ft 372 kts 208°
2026-04-20 19:23 31.80016 -8.62231 30122 ft 369 kts 208°
2026-04-20 19:23 31.77712 -8.63538 29704 ft 367 kts 208°
2026-04-20 19:24 31.75420 -8.64837 29270 ft 364 kts 207°
2026-04-20 19:24 31.73152 -8.66122 28876 ft 360 kts 207°
2026-04-20 19:24 31.70906 -8.67394 28482 ft 357 kts 207°
2026-04-20 19:24 31.68674 -8.68658 28091 ft 355 kts 207°
2026-04-20 19:25 31.66458 -8.69912 27714 ft 353 kts 207°
2026-04-20 19:25 31.64238 -8.71169 27341 ft 356 kts 207°
2026-04-20 19:25 31.62003 -8.72433 26967 ft 357 kts 207°
2026-04-20 19:25 31.59771 -8.73694 26567 ft 354 kts 207°
2026-04-20 19:26 31.57560 -8.74943 26193 ft 351 kts 207°
2026-04-20 19:26 31.55369 -8.76179 25816 ft 349 kts 207°
2026-04-20 19:26 31.53189 -8.77409 25459 ft 346 kts 207°
2026-04-20 19:26 31.51013 -8.78604 25086 ft 345 kts 206°
2026-04-20 19:27 31.48818 -8.79714 24703 ft 343 kts 205°
2026-04-20 19:27 31.46624 -8.80793 24342 ft 341 kts 205°
2026-04-20 19:27 31.44438 -8.81863 23978 ft 339 kts 205°
2026-04-20 19:27 31.42266 -8.82930 23634 ft 338 kts 205°
2026-04-20 19:28 31.40099 -8.84000 23225 ft 337 kts 205°
2026-04-20 19:28 31.37943 -8.85068 22821 ft 335 kts 205°
2026-04-20 19:28 31.35802 -8.86132 22435 ft 333 kts 205°
2026-04-20 19:28 31.33677 -8.87188 22067 ft 331 kts 205°
2026-04-20 19:29 31.31568 -8.88237 21730 ft 328 kts 205°
2026-04-20 19:29 31.29475 -8.89278 21376 ft 326 kts 205°
2026-04-20 19:29 31.27398 -8.90310 21026 ft 323 kts 205°
2026-04-20 19:29 31.25328 -8.91340 20682 ft 323 kts 204°
2026-04-20 19:30 31.23257 -8.92369 20335 ft 324 kts 204°
2026-04-20 19:30 31.21209 -8.93386 19994 ft 325 kts 204°
2026-04-20 19:30 31.19136 -8.94416 19640 ft 323 kts 204°
2026-04-20 19:30 31.17070 -8.95440 19299 ft 321 kts 204°
2026-04-20 19:31 31.15015 -8.96460 18931 ft 320 kts 204°
2026-04-20 19:31 31.12971 -8.97473 18590 ft 319 kts 204°
2026-04-20 19:31 31.10931 -8.98484 18239 ft 318 kts 204°
2026-04-20 19:31 31.08894 -8.99493 17866 ft 317 kts 204°
2026-04-20 19:32 31.06873 -9.00494 17490 ft 315 kts 204°
2026-04-20 19:32 31.04861 -9.01489 17142 ft 313 kts 204°
2026-04-20 19:32 31.02864 -9.02476 16788 ft 311 kts 204°
2026-04-20 19:32 31.00876 -9.03459 16440 ft 309 kts 204°
2026-04-20 19:33 30.98894 -9.04446 15992 ft 310 kts 204°
2026-04-20 19:33 30.96915 -9.05435 15644 ft 309 kts 204°
2026-04-20 19:33 30.94946 -9.06419 15300 ft 307 kts 204°
2026-04-20 19:33 30.92991 -9.07396 14965 ft 305 kts 203°
2026-04-20 19:34 30.91039 -9.08371 14614 ft 305 kts 203°
2026-04-20 19:34 30.89097 -9.09340 14276 ft 303 kts 202°
2026-04-20 19:34 30.87162 -9.10306 13954 ft 302 kts 202°
2026-04-20 19:34 30.85235 -9.11267 13606 ft 301 kts 202°
2026-04-20 19:35 30.83313 -9.12224 13245 ft 299 kts 202°
2026-04-20 19:35 30.81405 -9.13175 12906 ft 298 kts 202°
2026-04-20 19:35 30.79507 -9.14120 12584 ft 296 kts 202°
2026-04-20 19:35 30.77624 -9.15057 12261 ft 294 kts 202°
2026-04-20 19:36 30.75753 -9.15988 11957 ft 292 kts 202°
2026-04-20 19:36 30.73892 -9.16914 11619 ft 290 kts 202°
2026-04-20 19:36 30.72043 -9.17832 11296 ft 288 kts 202°
2026-04-20 19:36 30.70207 -9.18745 10993 ft 286 kts 202°
2026-04-20 19:37 30.68411 -9.19660 10693 ft 285 kts 203°
2026-04-20 19:37 30.66600 -9.20594 10369 ft 284 kts 203°
2026-04-20 19:37 30.64797 -9.21524 10109 ft 281 kts 203°
2026-04-20 19:37 30.63030 -9.22434 9937 ft 275 kts 203°
2026-04-20 19:38 30.61305 -9.23321 9805 ft 268 kts 203°
2026-04-20 19:38 30.59603 -9.24194 9476 ft 266 kts 202°
2026-04-20 19:38 30.57927 -9.25048 9231 ft 261 kts 200°
2026-04-20 19:38 30.56157 -9.25331 8925 ft 260 kts 170°
2026-04-20 19:39 30.54506 -9.24528 8687 ft 260 kts 146°
2026-04-20 19:39 30.53622 -9.23588 8511 ft 265 kts 131°
2026-04-20 19:39 30.52198 -9.21232 8143 ft 267 kts 128°
2026-04-20 19:39 30.51476 -9.20080 7954 ft 266 kts 130°
2026-04-20 19:40 30.50300 -9.18432 7667 ft 264 kts 135°
2026-04-20 19:40 30.49012 -9.16930 7378 ft 262 kts 140°
2026-04-20 19:40 30.47621 -9.15575 7098 ft 260 kts 144°
2026-04-20 19:40 30.46155 -9.14359 6822 ft 258 kts 149°
2026-04-20 19:41 30.44632 -9.13273 6549 ft 256 kts 152°
2026-04-20 19:41 30.43059 -9.12315 6275 ft 254 kts 156°
2026-04-20 19:41 30.41445 -9.11493 5968 ft 253 kts 160°
2026-04-20 19:41 30.39791 -9.10808 5674 ft 252 kts 163°
2026-04-20 19:42 30.38113 -9.10264 5396 ft 250 kts 167°
2026-04-20 19:42 30.36411 -9.09860 5153 ft 247 kts 171°
2026-04-20 19:42 30.34743 -9.09611 5120 ft 235 kts 179°
2026-04-20 19:42 30.33234 -9.10129 5095 ft 228 kts 216°
2026-04-20 19:43 30.32554 -9.11044 5005 ft 229 kts 240°
2026-04-20 19:43 30.31965 -9.14010 4567 ft 227 kts 258°
2026-04-20 19:43 30.31844 -9.15226 4360 ft 224 kts 259°
2026-04-20 19:43 30.31712 -9.17002 4078 ft 220 kts 264°
2026-04-20 19:44 30.31729 -9.18753 3795 ft 214 kts 268°
2026-04-20 19:44 30.31777 -9.20457 3509 ft 210 kts 268°
2026-04-20 19:44 30.31818 -9.22132 3236 ft 206 kts 268°
2026-04-20 19:44 30.31854 -9.23772 2961 ft 202 kts 268°
2026-04-20 19:45 30.31891 -9.25381 2693 ft 197 kts 268°
2026-04-20 19:45 30.31928 -9.26948 2430 ft 192 kts 268°
2026-04-20 19:45 30.31963 -9.28476 2173 ft 188 kts 268°
2026-04-20 19:45 30.31997 -9.29969 1913 ft 183 kts 270°
2026-04-20 19:46 30.32031 -9.31414 1677 ft 177 kts 270°
2026-04-20 19:46 30.32064 -9.32824 1441 ft 174 kts 271°
2026-04-20 19:46 30.32096 -9.34168 1264 ft 158 kts 271°
2026-04-20 19:46 30.32125 -9.35390 1030 ft 150 kts 270°
2026-04-20 19:47 30.32153 -9.36585 831 ft 147 kts 271°
2026-04-20 19:47 30.32182 -9.37787 609 ft 149 kts 270°
2026-04-20 19:47 30.32209 -9.38975 410 ft 148 kts 271°
2026-04-20 19:47 30.32241 -9.40157 232 ft 143 kts 269°
2026-04-20 19:48 30.32261 -9.41163 230 ft 103 kts 270°
2026-04-20 19:48 30.32279 -9.41814 230 ft 59 kts 271°
2026-04-20 19:48 30.32286 -9.42132 230 ft 30 kts 271°
2026-04-20 19:48 30.32290 -9.42363 233 ft 28 kts 271°
2026-04-20 19:49 30.32297 -9.42580 230 ft 26 kts 271°
2026-04-20 19:49 30.32306 -9.42748 232 ft 18 kts 287°
2026-04-20 19:49 30.32405 -9.42803 230 ft 18 kts
2026-04-20 19:49 30.32487 -9.42735 230 ft 17 kts 91°
2026-04-20 19:50 30.32484 -9.42602 230 ft 16 kts 91°
2026-04-20 19:50 30.32481 -9.42473 230 ft 16 kts 91°
2026-04-20 19:50 30.32479 -9.42350 230 ft 15 kts 91°
2026-04-20 19:50 30.32483 -9.42232 230 ft 14 kts 68°
2026-04-20 19:51 30.32570 -9.42193 230 ft 15 kts
2026-04-20 19:51 30.32683 -9.42190 230 ft 17 kts
2026-04-20 19:51 30.32808 -9.42175 230 ft 19 kts 29°
2026-04-20 19:51 30.32832 -9.42030 230 ft 21 kts 91°
2026-04-20 19:52 30.32828 -9.41856 230 ft 23 kts 91°
2026-04-20 19:52 30.32823 -9.41668 230 ft 24 kts 92°
2026-04-20 19:52 30.32819 -9.41473 230 ft 24 kts 91°
2026-04-20 19:52 30.32815 -9.41287 230 ft 23 kts 91°
2026-04-20 19:53 30.32810 -9.41112 230 ft 18 kts 91°
2026-04-20 19:53 30.32813 -9.41011 230 ft 10 kts 54°
2026-04-20 19:53 30.32867 -9.40998 230 ft 6 kts
2026-04-20 19:53 30.32881 -9.40997 230 ft 0 kts